STARLINK-32589, 62183

Orbit data source: Space-Track

STARLINK-32589, 62183 is a payload satellite owned by SpaceX/Seattle (US) in LEO that was launched on Sat, 30 Nov 2024 UTC via an FALCON 9 launch vehicle from the Air Force Western Test Range (AFWTR). Payload-class satellites include a variety of spacecraft equipped with specific instruments for various scientific and technological missions. These include communications satellites like Starlink; space stations such as the ISS; scientific satellites like the Hubble; Earth observation satellites from companies like Planet Labs, Umbra, and HawkEye 360; GPS; miniature CubeSats for education and research; and military/defense satellites.

Loading next visibility...
Identifier
62183, 2024-225W
Orbit
LEO
Country
Flag of USUS
Related business
Manufacturer
SpaceX/Seattle
Mission
Operational Commercial Communications
Bus & Motor
STARLINK V2M, Unknown motor
Mass
730 kg wet, ~700 kg dry
Launch date (UTC)
2024-11-30 (2 years ago)
Launch vehicle
FALCON 9
Launch site
Air Force Western Test Range (AFWTR)
Object type
Payload
Rocket body
Debris
Shape & HBR
Box + 2 Pan, 17.7 m
Radar Cross Section
33.884 m², Large (>1 m²)

Expand to show TLE details & history
Last TLE update: 9 hours ago

TLE from 9 hours ago
0 STARLINK-32589
1 62183U 24225W   26171.45814587  .00001522  00000-0  13533-3 0  9992
2 62183  70.0010 265.5434 0003156 268.4473  91.6324 14.98332381 85266
Epoch: 2026-06-20T10:59Z
TLE epoch observation values (Epoch: 2026-06-20T10:59:43.803Z)
Latitude
-0.00006°
Longitude
-168.06162°
Altitude
574.536 km
Speed
7.574 km/s
True Right ascension
17h 42m 10s
True Declination
0° 00' 00"
Sunlit
Object was in full shadow at epoch
Visualization orbit readout
Latitude
Unknown
Longitude
Unknown
Altitude
Unknown
Speed
Unknown
Apparent Right ascension
Unknown
Apparent Declination
Unknown
Sunlit
N/A
Visualization observer readout
Local Sidereal Time
07:21:21
Azimuth
Unknown
Elevation
Unknown
Doppler factor
Unknown
Orbital elements
Apogee altitude
572.189 km
Perigee altitude
567.804 km
Semi-major axis
6,948.134 km
Eccentricity
0.00032
Inclination
70.001°
RAAN
265.5434°
Arg. of periapsis
268.4473°
True anomaly
91.66855°
Mean anomaly
91.6324°
Eccentric anomaly
91.65048°
Mean motion
3.74749 °/min
Orbital period
96.06 mins
BSTAR
0.00013533
Loading maneuver chart data...
Computing Atmospheric mass density...
Loading historical data...
Loading historical data...
Loading historical data...
Loading historical data...
Loading historical data...
Loading historical data...
Loading historical data...

Documentation

Showing up to 5 results
|